Time,TemperatureF,DewpointF,PressureIn,WindDirection,WindDirectionDegrees,WindSpeedMPH,WindSpeedGustMPH,Humidity,HourlyPrecipIn,Conditions,Clouds,dailyrainin,SoftwareType,DateUTC
2013-08-07 00:01:00,77.0,75.5,29.88,NNW,331,0.0,2.0,95,0.01,,---,0.00,VWS V14.01,2013-08-07 05:01:00,
2013-08-07 00:06:00,77.1,75.6,29.87,NNW,336,0.0,3.0,95,0.01,,---,0.00,VWS V14.01,2013-08-07 05:06:00,
2013-08-07 00:11:00,77.1,75.6,29.87,NNW,336,0.0,3.0,95,0.01,,---,0.00,VWS V14.01,2013-08-07 05:11:00,
2013-08-07 00:16:00,77.1,75.6,29.87,NNW,336,0.0,3.0,95,0.01,,---,0.00,VWS V14.01,2013-08-07 05:16:00,
2013-08-07 00:21:00,77.0,75.5,29.88,NNW,336,0.0,3.0,95,0.01,,---,0.00,VWS V14.01,2013-08-07 05:21:00,
2013-08-07 00:26:00,77.0,75.5,29.87,NNW,336,0.0,3.0,95,0.01,,---,0.00,VWS V14.01,2013-08-07 05:26:00,
2013-08-07 00:31:00,77.0,75.5,29.87,NNW,336,0.0,1.0,95,0.00,,---,0.00,VWS V14.01,2013-08-07 05:31:00,
2013-08-07 00:36:00,77.0,75.5,29.87,NNW,336,0.0,1.0,95,0.00,,---,0.00,VWS V14.01,2013-08-07 05:36:00,
2013-08-07 00:41:00,77.0,75.5,29.87,NNW,336,0.0,1.0,95,0.00,,---,0.00,VWS V14.01,2013-08-07 05:41:00,
2013-08-07 00:46:00,76.9,75.4,29.87,NNW,336,0.0,1.0,95,0.00,,---,0.00,VWS V14.01,2013-08-07 05:46:00,
2013-08-07 00:51:00,76.9,75.4,29.87,NNW,336,0.0,1.0,95,0.00,,---,0.00,VWS V14.01,2013-08-07 05:51:00,
2013-08-07 00:56:00,76.9,75.4,29.86,NNW,336,0.0,1.0,95,0.00,,---,0.00,VWS V14.01,2013-08-07 05:56:00,
2013-08-07 01:01:00,76.9,75.4,29.86,NNW,336,0.0,0.0,95,0.00,,---,0.00,VWS V14.01,2013-08-07 06:01:00,
2013-08-07 01:06:00,76.8,75.3,29.86,NNW,336,0.0,0.0,95,0.00,,---,0.00,VWS V14.01,2013-08-07 06:06:00,
2013-08-07 01:11:00,76.8,75.3,29.86,NNW,336,0.0,0.0,95,0.00,,---,0.00,VWS V14.01,2013-08-07 06:11:00,
2013-08-07 01:16:00,76.7,75.2,29.86,NNW,336,0.0,0.0,95,0.00,,---,0.00,VWS V14.01,2013-08-07 06:16:00,
2013-08-07 01:21:00,76.7,75.2,29.86,NNW,336,0.0,1.0,95,0.00,,---,0.00,VWS V14.01,2013-08-07 06:21:00,
2013-08-07 01:26:00,76.8,75.3,29.86,NNW,336,0.0,3.0,95,0.00,,---,0.00,VWS V14.01,2013-08-07 06:26:00,
2013-08-07 01:31:00,76.8,75.3,29.86,NNW,336,0.0,0.0,95,0.00,,---,0.00,VWS V14.01,2013-08-07 06:31:00,
2013-08-07 01:36:00,76.8,75.3,29.86,NNW,339,1.0,3.0,95,0.00,,---,0.00,VWS V14.01,2013-08-07 06:36:00,
2013-08-07 01:41:00,76.7,75.2,29.86,NNW,340,0.0,3.0,95,0.00,,---,0.00,VWS V14.01,2013-08-07 06:41:00,
2013-08-07 01:46:00,76.7,75.2,29.86,NNW,340,0.0,3.0,95,0.00,,---,0.00,VWS V14.01,2013-08-07 06:46:00,
2013-08-07 01:51:00,76.6,75.1,29.86,NNW,340,0.0,3.0,95,0.00,,---,0.00,VWS V14.01,2013-08-07 06:51:00,
2013-08-07 01:56:00,76.5,75.0,29.86,North,355,0.0,3.0,95,0.00,,---,0.00,VWS V14.01,2013-08-07 06:56:00,
2013-08-07 02:01:00,76.5,75.0,29.86,NNE,31,0.0,3.0,95,0.00,,---,0.00,VWS V14.01,2013-08-07 07:01:00,
2013-08-07 02:06:00,76.4,74.9,29.86,NNE,31,0.0,3.0,95,0.00,,---,0.00,VWS V14.01,2013-08-07 07:06:00,
2013-08-07 02:11:00,76.4,75.2,29.86,NNE,31,0.0,3.0,96,0.00,,---,0.00,VWS V14.01,2013-08-07 07:11:00,
2013-08-07 02:16:00,76.3,75.1,29.85,NNE,31,0.0,3.0,96,0.00,,---,0.00,VWS V14.01,2013-08-07 07:16:00,
2013-08-07 02:21:00,76.3,74.8,29.86,NNE,31,0.0,3.0,95,0.00,,---,0.00,VWS V14.01,2013-08-07 07:21:00,
2013-08-07 02:26:00,76.3,74.8,29.85,NNE,31,0.0,3.0,95,0.00,,---,0.00,VWS V14.01,2013-08-07 07:26:00,
2013-08-07 02:31:00,76.2,74.7,29.85,NNE,31,0.0,3.0,95,0.00,,---,0.00,VWS V14.01,2013-08-07 07:31:00,
2013-08-07 02:36:00,76.1,74.6,29.85,NNE,31,0.0,3.0,95,0.00,,---,0.00,VWS V14.01,2013-08-07 07:36:00,
2013-08-07 02:41:00,76.1,74.6,29.86,NNE,31,0.0,3.0,95,0.00,,---,0.00,VWS V14.01,2013-08-07 07:41:00,
2013-08-07 02:46:00,76.0,74.5,29.85,NNE,31,0.0,3.0,95,0.00,,---,0.00,VWS V14.01,2013-08-07 07:46:00,
2013-08-07 02:51:00,76.0,74.8,29.85,NNE,31,0.0,3.0,96,0.00,,---,0.00,VWS V14.01,2013-08-07 07:51:00,
2013-08-07 02:56:00,75.9,74.7,29.85,NNE,31,0.0,3.0,96,0.00,,---,0.00,VWS V14.01,2013-08-07 07:56:00,
2013-08-07 03:01:00,75.9,74.7,29.85,NNE,31,0.0,0.0,96,0.00,,---,0.00,VWS V14.01,2013-08-07 08:01:00,
2013-08-07 03:06:00,75.8,74.6,29.85,NNE,31,0.0,0.0,96,0.00,,---,0.00,VWS V14.01,2013-08-07 08:06:00,
2013-08-07 03:11:00,75.8,74.6,29.85,NNE,31,0.0,0.0,96,0.00,,---,0.00,VWS V14.01,2013-08-07 08:11:00,
2013-08-07 03:16:00,75.8,74.6,29.85,NNE,31,0.0,0.0,96,0.00,,---,0.00,VWS V14.01,2013-08-07 08:16:00,
2013-08-07 03:21:00,75.8,74.6,29.85,NNE,31,0.0,0.0,96,0.00,,---,0.00,VWS V14.01,2013-08-07 08:21:00,
2013-08-07 03:26:00,75.7,74.5,29.84,NNE,31,0.0,0.0,96,0.00,,---,0.00,VWS V14.01,2013-08-07 08:26:00,
2013-08-07 03:31:00,75.7,74.5,29.85,NNE,31,0.0,0.0,96,0.00,,---,0.00,VWS V14.01,2013-08-07 08:31:00,
2013-08-07 03:36:00,75.7,74.5,29.85,NNE,31,0.0,1.0,96,0.00,,---,0.00,VWS V14.01,2013-08-07 08:36:00,
2013-08-07 03:41:00,75.7,74.5,29.85,NNE,31,0.0,1.0,96,0.00,,---,0.00,VWS V14.01,2013-08-07 08:41:00,
2013-08-07 03:46:00,75.6,74.4,29.85,NNE,31,0.0,1.0,96,0.00,,---,0.00,VWS V14.01,2013-08-07 08:46:00,
2013-08-07 03:51:00,75.6,74.4,29.85,NNE,31,0.0,1.0,96,0.00,,---,0.00,VWS V14.01,2013-08-07 08:51:00,
2013-08-07 03:56:00,75.5,74.3,29.85,NNE,31,0.0,1.0,96,0.00,,---,0.00,VWS V14.01,2013-08-07 08:56:00,
2013-08-07 04:01:00,75.5,74.3,29.85,NNE,31,0.0,0.0,96,0.00,,---,0.00,VWS V14.01,2013-08-07 09:01:00,
2013-08-07 04:06:00,75.5,74.3,29.84,NNE,31,0.0,1.0,96,0.00,,---,0.00,VWS V14.01,2013-08-07 09:06:00,
2013-08-07 04:11:00,75.4,74.2,29.84,NNE,31,0.0,1.0,96,0.00,,---,0.00,VWS V14.01,2013-08-07 09:11:00,
2013-08-07 04:16:00,75.4,74.2,29.84,NNE,31,0.0,1.0,96,0.00,,---,0.00,VWS V14.01,2013-08-07 09:16:00,
2013-08-07 04:21:00,75.3,74.1,29.85,NNE,31,0.0,1.0,96,0.00,,---,0.00,VWS V14.01,2013-08-07 09:21:00,
2013-08-07 04:26:00,75.3,74.1,29.85,NNE,31,0.0,1.0,96,0.00,,---,0.00,VWS V14.01,2013-08-07 09:26:00,
2013-08-07 04:31:00,75.2,74.0,29.85,NNE,31,0.0,0.0,96,0.00,,---,0.00,VWS V14.01,2013-08-07 09:31:00,
2013-08-07 04:36:00,75.2,74.0,29.85,NNE,31,0.0,0.0,96,0.00,,---,0.00,VWS V14.01,2013-08-07 09:36:00,
2013-08-07 04:41:00,75.2,74.0,29.85,NNE,31,0.0,0.0,96,0.00,,---,0.00,VWS V14.01,2013-08-07 09:41:00,
2013-08-07 04:46:00,75.2,74.0,29.85,NNE,31,0.0,0.0,96,0.00,,---,0.00,VWS V14.01,2013-08-07 09:46:00,
2013-08-07 04:51:00,75.1,73.9,29.85,NNE,31,0.0,0.0,96,0.00,,---,0.00,VWS V14.01,2013-08-07 09:51:00,
2013-08-07 04:56:00,75.1,73.9,29.85,NNE,31,0.0,0.0,96,0.00,,---,0.00,VWS V14.01,2013-08-07 09:56:00,
2013-08-07 05:01:00,75.1,73.9,29.85,NNE,31,0.0,0.0,96,0.00,,---,0.00,VWS V14.01,2013-08-07 10:01:00,
2013-08-07 05:06:00,75.1,73.9,29.86,NNE,31,0.0,0.0,96,0.00,,---,0.00,VWS V14.01,2013-08-07 10:06:00,
2013-08-07 05:11:00,75.1,73.9,29.85,NNE,31,0.0,0.0,96,0.00,,---,0.00,VWS V14.01,2013-08-07 10:11:00,
2013-08-07 05:16:00,75.1,73.9,29.86,NNE,31,0.0,0.0,96,0.00,,---,0.00,VWS V14.01,2013-08-07 10:16:00,
2013-08-07 05:21:00,75.1,73.9,29.85,NNE,31,0.0,0.0,96,0.00,,---,0.00,VWS V14.01,2013-08-07 10:21:00,
2013-08-07 05:26:00,75.0,73.8,29.85,NNE,31,0.0,0.0,96,0.00,,---,0.00,VWS V14.01,2013-08-07 10:26:00,
2013-08-07 05:31:00,75.0,73.8,29.85,NNE,31,0.0,0.0,96,0.00,,---,0.00,VWS V14.01,2013-08-07 10:31:00,
2013-08-07 05:36:00,75.0,73.8,29.85,NNE,31,0.0,0.0,96,0.00,,---,0.00,VWS V14.01,2013-08-07 10:36:00,
2013-08-07 05:41:00,74.9,73.7,29.85,NNE,31,0.0,0.0,96,0.00,,---,0.00,VWS V14.01,2013-08-07 10:41:00,
2013-08-07 05:46:00,74.9,73.7,29.85,NNE,31,0.0,0.0,96,0.00,,---,0.00,VWS V14.01,2013-08-07 10:46:00,
2013-08-07 05:51:00,74.9,73.7,29.85,NNE,31,0.0,0.0,96,0.00,,---,0.00,VWS V14.01,2013-08-07 10:51:00,
2013-08-07 05:56:00,74.9,73.7,29.85,NNE,31,0.0,0.0,96,0.00,,---,0.00,VWS V14.01,2013-08-07 10:56:00,
2013-08-07 06:01:00,74.9,73.7,29.85,NNE,31,0.0,0.0,96,0.00,,---,0.00,VWS V14.01,2013-08-07 11:01:00,
2013-08-07 06:06:00,74.8,73.6,29.85,NNE,31,0.0,0.0,96,0.00,,---,0.00,VWS V14.01,2013-08-07 11:06:00,
2013-08-07 06:11:00,74.8,73.6,29.85,NNE,31,0.0,0.0,96,0.00,,---,0.00,VWS V14.01,2013-08-07 11:11:00,
2013-08-07 06:16:00,74.9,73.7,29.86,NNE,31,0.0,0.0,96,0.00,,---,0.00,VWS V14.01,2013-08-07 11:16:00,
2013-08-07 06:21:00,74.9,73.7,29.86,NNE,31,0.0,0.0,96,0.00,,---,0.00,VWS V14.01,2013-08-07 11:21:00,
2013-08-07 06:26:00,74.9,73.7,29.86,NNE,31,0.0,0.0,96,0.00,,---,0.00,VWS V14.01,2013-08-07 11:26:00,
2013-08-07 06:31:00,74.9,73.7,29.86,NNE,31,0.0,0.0,96,0.00,,---,0.00,VWS V14.01,2013-08-07 11:31:00,
2013-08-07 06:36:00,74.8,73.6,29.87,NNE,31,0.0,0.0,96,0.00,,---,0.00,VWS V14.01,2013-08-07 11:36:00,
2013-08-07 06:41:00,74.9,73.7,29.87,NNE,31,0.0,0.0,96,0.00,,---,0.00,VWS V14.01,2013-08-07 11:41:00,
2013-08-07 06:46:00,75.0,73.8,29.87,NNE,31,0.0,0.0,96,0.00,,---,0.00,VWS V14.01,2013-08-07 11:46:00,
2013-08-07 06:51:00,75.2,74.3,29.88,NNE,31,0.0,0.0,97,0.00,,---,0.00,VWS V14.01,2013-08-07 11:51:00,
2013-08-07 06:56:00,75.4,74.2,29.88,NNE,31,0.0,0.0,96,0.00,,---,0.00,VWS V14.01,2013-08-07 11:56:00,
2013-08-07 07:01:00,75.6,74.4,29.88,NNE,31,0.0,0.0,96,0.00,,---,0.00,VWS V14.01,2013-08-07 12:01:00,
2013-08-07 07:06:00,75.9,75.0,29.88,NNW,339,0.0,0.0,97,0.00,,---,0.00,VWS V14.01,2013-08-07 12:06:00,
2013-08-07 07:11:00,76.2,75.3,29.88,NNW,339,0.0,0.0,97,0.00,,---,0.00,VWS V14.01,2013-08-07 12:11:00,
2013-08-07 07:16:00,76.6,75.7,29.88,NNW,340,0.0,2.0,97,0.00,,---,0.00,VWS V14.01,2013-08-07 12:16:00,
2013-08-07 07:21:00,76.9,76.0,29.88,NNW,340,0.0,2.0,97,0.00,,---,0.00,VWS V14.01,2013-08-07 12:21:00,
2013-08-07 07:26:00,77.2,76.3,29.89,NNW,340,0.0,2.0,97,0.00,,---,0.00,VWS V14.01,2013-08-07 12:26:00,
2013-08-07 07:31:00,77.5,76.6,29.89,NNW,340,0.0,1.0,97,0.00,,---,0.00,VWS V14.01,2013-08-07 12:31:00,
2013-08-07 07:36:00,77.9,77.0,29.89,North,5,0.0,1.0,97,0.00,,---,0.00,VWS V14.01,2013-08-07 12:36:00,
2013-08-07 07:41:00,78.1,77.2,29.89,NE,49,0.0,1.0,97,0.00,,---,0.00,VWS V14.01,2013-08-07 12:41:00,
2013-08-07 07:46:00,78.4,77.5,29.90,NE,49,0.0,1.0,97,0.00,,---,0.00,VWS V14.01,2013-08-07 12:46:00,
2013-08-07 07:51:00,78.5,77.3,29.90,NE,53,0.0,3.0,96,0.00,,---,0.00,VWS V14.01,2013-08-07 12:51:00,
2013-08-07 07:56:00,78.9,77.7,29.89,East,82,0.0,3.0,96,0.00,,---,0.00,VWS V14.01,2013-08-07 12:56:00,
2013-08-07 08:01:00,79.3,78.1,29.90,East,88,0.0,3.0,96,0.00,,---,0.00,VWS V14.01,2013-08-07 13:01:00,
2013-08-07 08:06:00,79.6,78.4,29.90,East,88,1.0,3.0,96,0.00,,---,0.00,VWS V14.01,2013-08-07 13:06:00,
2013-08-07 08:11:00,79.7,78.5,29.90,East,90,0.0,3.0,96,0.00,,---,0.00,VWS V14.01,2013-08-07 13:11:00,
2013-08-07 08:16:00,80.1,78.9,29.90,East,91,0.0,3.0,96,0.00,,---,0.00,VWS V14.01,2013-08-07 13:16:00,
2013-08-07 08:21:00,80.5,78.9,29.90,SE,138,0.0,3.0,95,0.00,,---,0.00,VWS V14.01,2013-08-07 13:21:00,
2013-08-07 08:26:00,81.0,79.4,29.90,SE,138,0.0,3.0,95,0.00,,---,0.00,VWS V14.01,2013-08-07 13:26:00,
2013-08-07 08:31:00,81.5,79.6,29.90,SE,138,0.0,1.0,94,0.00,,---,0.00,VWS V14.01,2013-08-07 13:31:00,
2013-08-07 08:36:00,82.0,80.1,29.90,SE,138,0.0,1.0,94,0.00,,---,0.00,VWS V14.01,2013-08-07 13:36:00,
2013-08-07 08:41:00,82.6,79.7,29.90,SE,138,0.0,1.0,91,0.00,,---,0.00,VWS V14.01,2013-08-07 13:41:00,
2013-08-07 08:46:00,83.0,80.1,29.90,SE,138,0.0,1.0,91,0.00,,---,0.00,VWS V14.01,2013-08-07 13:46:00,
2013-08-07 08:51:00,83.5,79.6,29.90,SE,138,0.0,1.0,88,0.00,,---,0.00,VWS V14.01,2013-08-07 13:51:00,
2013-08-07 08:56:00,83.8,79.2,29.90,ENE,69,0.0,4.0,86,0.00,,---,0.00,VWS V14.01,2013-08-07 13:56:00,
2013-08-07 09:01:00,83.9,78.9,29.90,ENE,73,0.0,4.0,85,0.00,,---,0.00,VWS V14.01,2013-08-07 14:01:00,
2013-08-07 09:06:00,84.2,79.2,29.90,ENE,71,4.0,4.0,85,0.00,,---,0.00,VWS V14.01,2013-08-07 14:06:00,
2013-08-07 09:11:00,84.3,78.9,29.90,ENE,69,0.0,4.0,84,0.00,,---,0.00,VWS V14.01,2013-08-07 14:11:00,
2013-08-07 09:16:00,84.8,79.8,29.90,ENE,69,0.0,4.0,85,0.00,,---,0.00,VWS V14.01,2013-08-07 14:16:00,
2013-08-07 09:21:00,85.0,79.3,29.90,NE,48,4.0,6.0,83,0.00,,---,0.00,VWS V14.01,2013-08-07 14:21:00,
2013-08-07 09:26:00,85.1,79.7,29.90,NE,48,4.0,6.0,84,0.00,,---,0.00,VWS V14.01,2013-08-07 14:26:00,
2013-08-07 09:31:00,85.1,79.4,29.90,NE,38,1.0,5.0,83,0.00,,---,0.00,VWS V14.01,2013-08-07 14:31:00,
2013-08-07 09:36:00,85.4,79.3,29.90,NE,39,1.0,5.0,82,0.00,,---,0.00,VWS V14.01,2013-08-07 14:36:00,
2013-08-07 09:41:00,85.6,79.5,29.90,NE,38,0.0,5.0,82,0.00,,---,0.00,VWS V14.01,2013-08-07 14:41:00,
2013-08-07 09:46:00,85.8,80.4,29.90,NE,36,3.0,5.0,84,0.00,,---,0.00,VWS V14.01,2013-08-07 14:46:00,
2013-08-07 09:51:00,85.6,79.5,29.90,NE,41,0.0,5.0,82,0.00,,---,0.00,VWS V14.01,2013-08-07 14:51:00,
2013-08-07 09:56:00,85.8,79.3,29.90,NE,49,0.0,5.0,81,0.00,,---,0.00,VWS V14.01,2013-08-07 14:56:00,
2013-08-07 10:01:00,85.9,79.4,29.90,NE,44,2.0,3.0,81,0.00,,---,0.00,VWS V14.01,2013-08-07 15:01:00,
2013-08-07 10:06:00,85.8,79.7,29.90,NE,46,4.0,6.0,82,0.00,,---,0.00,VWS V14.01,2013-08-07 15:06:00,
2013-08-07 10:11:00,85.8,79.7,29.90,NE,50,0.0,6.0,82,0.00,,---,0.00,VWS V14.01,2013-08-07 15:11:00,
2013-08-07 10:16:00,86.1,79.6,29.90,NE,50,0.0,6.0,81,0.00,,---,0.00,VWS V14.01,2013-08-07 15:16:00,
2013-08-07 10:21:00,86.4,79.9,29.90,NE,49,3.0,6.0,81,0.00,,---,0.00,VWS V14.01,2013-08-07 15:21:00,
2013-08-07 10:26:00,86.5,79.6,29.90,ENE,69,0.0,7.0,80,0.00,,---,0.00,VWS V14.01,2013-08-07 15:26:00,
2013-08-07 10:31:00,86.7,79.8,29.91,NE,53,0.0,7.0,80,0.00,,---,0.00,VWS V14.01,2013-08-07 15:31:00,
2013-08-07 10:36:00,87.0,80.1,29.91,NE,51,5.0,7.0,80,0.00,,---,0.00,VWS V14.01,2013-08-07 15:36:00,
2013-08-07 10:41:00,87.3,80.0,29.91,NE,39,0.0,7.0,79,0.00,,---,0.00,VWS V14.01,2013-08-07 15:41:00,
2013-08-07 10:46:00,87.4,79.7,29.91,North,5,3.0,7.0,78,0.00,,---,0.00,VWS V14.01,2013-08-07 15:46:00,
2013-08-07 10:51:00,87.5,79.8,29.91,NNE,21,0.0,7.0,78,0.00,,---,0.00,VWS V14.01,2013-08-07 15:51:00,
2013-08-07 10:56:00,87.7,80.0,29.91,ENE,71,1.0,7.0,78,0.00,,---,0.00,VWS V14.01,2013-08-07 15:56:00,
2013-08-07 11:01:00,87.9,80.2,29.91,ENE,59,0.0,3.0,78,0.00,,---,0.00,VWS V14.01,2013-08-07 16:01:00,
2013-08-07 11:06:00,88.3,79.8,29.91,ENE,59,0.0,4.0,76,0.00,,---,0.00,VWS V14.01,2013-08-07 16:06:00,
2013-08-07 11:11:00,88.4,79.9,29.91,ENE,59,0.0,4.0,76,0.00,,---,0.00,VWS V14.01,2013-08-07 16:11:00,
2013-08-07 11:16:00,88.4,79.9,29.91,NNE,17,0.0,6.0,76,0.00,,---,0.00,VWS V14.01,2013-08-07 16:16:00,
2013-08-07 11:21:00,88.6,80.5,29.91,NNE,16,0.0,6.0,77,0.00,,---,0.00,VWS V14.01,2013-08-07 16:21:00,
2013-08-07 11:26:00,89.0,80.1,29.91,ENE,64,3.0,6.0,75,0.00,,---,0.00,VWS V14.01,2013-08-07 16:26:00,
2013-08-07 11:31:00,89.0,80.4,29.90,ENE,59,1.0,4.0,76,0.00,,---,0.00,VWS V14.01,2013-08-07 16:31:00,
2013-08-07 11:36:00,89.0,80.4,29.91,ENE,59,0.0,4.0,76,0.00,,---,0.00,VWS V14.01,2013-08-07 16:36:00,
2013-08-07 11:41:00,89.2,79.4,29.91,ENE,69,0.0,6.0,73,0.00,,---,0.00,VWS V14.01,2013-08-07 16:41:00,
2013-08-07 11:46:00,89.5,80.1,29.91,NE,53,0.0,6.0,74,0.00,,---,0.00,VWS V14.01,2013-08-07 16:46:00,
2013-08-07 11:51:00,89.8,79.6,29.91,ENE,74,0.0,8.0,72,0.00,,---,0.00,VWS V14.01,2013-08-07 16:51:00,
2013-08-07 11:56:00,89.8,79.6,29.91,ENE,72,0.0,8.0,72,0.00,,---,0.00,VWS V14.01,2013-08-07 16:56:00,
2013-08-07 12:01:00,90.2,79.9,29.90,ENE,72,1.0,2.0,72,0.00,,---,0.00,VWS V14.01,2013-08-07 17:01:00,
2013-08-07 12:06:00,90.4,78.4,29.90,ENE,59,5.0,9.0,68,0.00,,---,0.00,VWS V14.01,2013-08-07 17:06:00,
2013-08-07 12:11:00,90.1,79.0,29.90,ENE,59,0.0,9.0,70,0.00,,---,0.00,VWS V14.01,2013-08-07 17:11:00,
2013-08-07 12:16:00,90.2,79.1,29.90,NE,55,4.0,9.0,70,0.00,,---,0.00,VWS V14.01,2013-08-07 17:16:00,
2013-08-07 12:21:00,90.4,80.2,29.90,NNE,19,0.0,9.0,72,0.00,,---,0.00,VWS V14.01,2013-08-07 17:21:00,
2013-08-07 12:26:00,90.8,78.8,29.89,ENE,61,0.0,9.0,68,0.00,,---,0.00,VWS V14.01,2013-08-07 17:26:00,
2013-08-07 12:31:00,90.8,78.8,29.90,NE,39,2.0,5.0,68,0.00,,---,0.00,VWS V14.01,2013-08-07 17:31:00,
2013-08-07 12:36:00,90.3,78.8,29.89,NE,39,0.0,5.0,69,0.00,,---,0.00,VWS V14.01,2013-08-07 17:36:00,
2013-08-07 12:41:00,90.3,79.6,29.89,NE,39,0.0,5.0,71,0.00,,---,0.00,VWS V14.01,2013-08-07 17:41:00,
2013-08-07 12:46:00,90.7,79.1,29.89,NE,34,3.0,6.0,69,0.00,,---,0.00,VWS V14.01,2013-08-07 17:46:00,
2013-08-07 12:51:00,91.1,80.8,29.88,NE,54,3.0,6.0,72,0.00,,---,0.00,VWS V14.01,2013-08-07 17:51:00,
2013-08-07 12:56:00,90.9,79.8,29.88,East,80,0.0,6.0,70,0.00,,---,0.00,VWS V14.01,2013-08-07 17:56:00,
2013-08-07 13:01:00,90.8,78.8,29.88,East,80,2.0,6.0,68,0.00,,---,0.00,VWS V14.01,2013-08-07 18:01:00,
2013-08-07 13:06:00,91.2,79.6,29.88,SE,146,0.0,6.0,69,0.00,,---,0.00,VWS V14.01,2013-08-07 18:06:00,
2013-08-07 13:11:00,91.5,79.4,29.88,ESE,121,0.0,6.0,68,0.00,,---,0.00,VWS V14.01,2013-08-07 18:11:00,
2013-08-07 13:16:00,92.0,79.9,29.88,East,80,0.0,6.0,68,0.00,,---,0.00,VWS V14.01,2013-08-07 18:16:00,
2013-08-07 13:21:00,92.1,79.6,29.88,ENE,65,2.0,6.0,67,0.00,,---,0.00,VWS V14.01,2013-08-07 18:21:00,
2013-08-07 13:26:00,91.5,79.0,29.88,ENE,65,0.0,6.0,67,0.00,,---,0.00,VWS V14.01,2013-08-07 18:26:00,
2013-08-07 13:31:00,91.5,81.6,29.88,SSW,192,0.0,5.0,73,0.00,,---,0.00,VWS V14.01,2013-08-07 18:31:00,
2013-08-07 13:36:00,91.1,82.1,29.88,SSE,154,0.0,8.0,75,0.00,,---,0.00,VWS V14.01,2013-08-07 18:36:00,
2013-08-07 13:41:00,90.1,81.1,29.88,SSW,203,0.0,9.0,75,0.00,,---,0.00,VWS V14.01,2013-08-07 18:41:00,
2013-08-07 13:46:00,89.2,80.7,29.88,South,169,2.0,9.0,76,0.00,,---,0.00,VWS V14.01,2013-08-07 18:46:00,
2013-08-07 13:51:00,88.5,80.8,29.88,South,178,0.0,9.0,78,0.00,,---,0.00,VWS V14.01,2013-08-07 18:51:00,
2013-08-07 13:56:00,88.1,80.8,29.87,SSE,157,1.0,9.0,79,0.00,,---,0.00,VWS V14.01,2013-08-07 18:56:00,
2013-08-07 14:01:00,87.8,80.9,29.87,SSE,162,0.0,5.0,80,0.00,,---,0.00,VWS V14.01,2013-08-07 19:01:00,
2013-08-07 14:06:00,87.9,81.0,29.87,SSW,198,0.0,5.0,80,0.00,,---,0.00,VWS V14.01,2013-08-07 19:06:00,
2013-08-07 14:11:00,88.4,81.4,29.87,South,182,2.0,6.0,80,0.00,,---,0.00,VWS V14.01,2013-08-07 19:11:00,
2013-08-07 14:16:00,88.8,80.7,29.87,SSW,194,4.0,7.0,77,0.00,,---,0.00,VWS V14.01,2013-08-07 19:16:00,
2013-08-07 14:21:00,89.2,81.4,29.87,ESE,119,2.0,9.0,78,0.00,,---,0.00,VWS V14.01,2013-08-07 19:21:00,
2013-08-07 14:26:00,88.7,80.6,29.87,SSE,165,0.0,9.0,77,0.01,,---,0.01,VWS V14.01,2013-08-07 19:26:00,
2013-08-07 14:31:00,87.5,80.9,29.87,South,169,0.0,4.0,81,0.02,,---,0.02,VWS V14.01,2013-08-07 19:31:00,
2013-08-07 14:36:00,86.5,80.7,29.87,South,180,0.0,4.0,83,0.02,,---,0.02,VWS V14.01,2013-08-07 19:36:00,
2013-08-07 14:41:00,85.7,79.2,29.86,SE,146,11.0,11.0,81,0.02,,---,0.02,VWS V14.01,2013-08-07 19:41:00,
2013-08-07 14:46:00,85.1,80.1,29.86,SSW,196,9.0,11.0,85,0.02,,---,0.02,VWS V14.01,2013-08-07 19:46:00,
2013-08-07 14:51:00,85.0,80.3,29.86,SSW,200,0.0,11.0,86,0.02,,---,0.02,VWS V14.01,2013-08-07 19:51:00,
2013-08-07 14:56:00,85.6,81.6,29.86,South,174,0.0,11.0,88,0.02,,---,0.02,VWS V14.01,2013-08-07 19:56:00,
2013-08-07 15:01:00,86.1,81.4,29.86,South,186,0.0,5.0,86,0.02,,---,0.02,VWS V14.01,2013-08-07 20:01:00,
2013-08-07 15:06:00,86.5,81.5,29.86,SSW,195,0.0,9.0,85,0.02,,---,0.02,VWS V14.01,2013-08-07 20:06:00,
2013-08-07 15:11:00,87.1,81.3,29.86,South,184,10.0,13.0,83,0.02,,---,0.02,VWS V14.01,2013-08-07 20:11:00,
2013-08-07 15:16:00,87.6,81.4,29.86,South,182,0.0,13.0,82,0.02,,---,0.02,VWS V14.01,2013-08-07 20:16:00,
2013-08-07 15:21:00,88.1,82.3,29.86,South,169,7.0,13.0,83,0.02,,---,0.02,VWS V14.01,2013-08-07 20:21:00,
2013-08-07 15:26:00,87.6,81.1,29.86,SE,126,0.0,13.0,81,0.02,,---,0.02,VWS V14.01,2013-08-07 20:26:00,
2013-08-07 15:31:00,87.0,81.2,29.86,SSE,151,0.0,4.0,83,0.00,,---,0.02,VWS V14.01,2013-08-07 20:31:00,